Rockway

*Note: All times are displayed in the local standard time of the station location.
**Rain - Equipment is designed to accurately record liquid precipitation; under conditions when precipitation is not in liquid form, the data displayed may not properly reflect rainfall values.

Date Max Temp
(°C)
Min Temp
(°C)
Avg Temp
(°C)
Rain (mm) Avg RH (%)
Mon, Dec 11, 2017 -2.0 -4.8 -3.8 0.0 85.4
Sun, Dec 10, 2017 -1.6 -3.1 -2.3 0.0 73.1
Sat, Dec 09, 2017 1.1 -3.2 -0.8 0.0 64.3
Fri, Dec 08, 2017 -0.2 -4.6 -2.1 0.0 63.4
Thu, Dec 07, 2017 0.9 -3.7 -1.1 0.0 62.4
Wed, Dec 06, 2017 3.4 -1.2 1.2 0.0 54.3
Tue, Dec 05, 2017 11.3 0.4 7.3 5.0 69.8
DateTime Avg Temp (°C) Rain (mm) RH (%)
Tue, Dec 12, 2017 02:00 -3.4 0.0 98.0
Tue, Dec 12, 2017 01:00 -3.9 0.0 97.0
Tue, Dec 12, 2017 00:00 -4.2 0.0 97.0
Mon, Dec 11, 2017 23:00 -4.4 0.0 96.0
Mon, Dec 11, 2017 22:00 -4.6 0.0 95.0
Mon, Dec 11, 2017 21:00 -4.6 0.0 95.0
Mon, Dec 11, 2017 20:00 -4.6 0.0 95.5
Mon, Dec 11, 2017 19:00 -4.7 0.0 95.8
Mon, Dec 11, 2017 18:00 -4.4 0.0 93.0
Mon, Dec 11, 2017 17:00 -4.1 0.0 91.5
Mon, Dec 11, 2017 16:00 -3.9 0.0 89.8
Mon, Dec 11, 2017 15:00 -3.4 0.0 81.0
Mon, Dec 11, 2017 14:00 -3.4 0.0 80.5
Mon, Dec 11, 2017 13:00 -3.2 0.0 75.3
Mon, Dec 11, 2017 12:00 -3.2 0.0 74.8
Mon, Dec 11, 2017 11:00 -3.2 0.0 77.5
Mon, Dec 11, 2017 10:00 -3.3 0.0 75.0
Mon, Dec 11, 2017 09:00 -4.1 0.0 82.0
Mon, Dec 11, 2017 08:00 -4.3 0.0 81.0
Mon, Dec 11, 2017 07:00 -4.2 0.0 80.5
Mon, Dec 11, 2017 06:00 -3.8 0.0 82.0
Mon, Dec 11, 2017 05:00 -3.7 0.0 83.3
Mon, Dec 11, 2017 04:00 -3.3 0.0 82.8
Mon, Dec 11, 2017 03:00 -3.1 0.0 83.5
Mon, Dec 11, 2017 02:00 -2.9 0.0 87.3
Mon, Dec 11, 2017 01:00 -2.1 0.0 76.0
Mon, Dec 11, 2017 00:00 -2.4 0.0 74.5
Sun, Dec 10, 2017 23:00 -2.7 0.0 75.5
Sun, Dec 10, 2017 22:00 -2.6 0.0 73.8
Sun, Dec 10, 2017 21:00 -2.4 0.0 72.0
Sun, Dec 10, 2017 20:00 -2.4 0.0 70.0
Sun, Dec 10, 2017 19:00 -2.3 0.0 67.8
Sun, Dec 10, 2017 18:00 -1.8 0.0 61.8
Sun, Dec 10, 2017 17:00 -1.8 0.0 64.5
Sun, Dec 10, 2017 16:00 -1.8 0.0 67.8
Sun, Dec 10, 2017 15:00 -1.7 0.0 70.5
Sun, Dec 10, 2017 14:00 -1.7 0.0 68.8
Sun, Dec 10, 2017 13:00 -1.8 0.0 68.5
Sun, Dec 10, 2017 12:00 -1.9 0.0 65.8
Sun, Dec 10, 2017 11:00 -2.3 0.0 63.5
Sun, Dec 10, 2017 10:00 -2.7 0.0 65.8
Sun, Dec 10, 2017 09:00 -3.0 0.0 67.8
Sun, Dec 10, 2017 08:00 -3.0 0.0 68.0
Sun, Dec 10, 2017 07:00 -3.0 0.0 78.0
Sun, Dec 10, 2017 06:00 -3.0 0.0 80.8
Sun, Dec 10, 2017 05:00 -2.4 0.0 83.5
Sun, Dec 10, 2017 04:00 -2.5 0.0 87.0
Sun, Dec 10, 2017 03:00 -2.5 0.0 85.8


asterix Register now to access more data! asterix